Regional Weather Roundup
Issued by NWS

Home | Current Version | Previous Version | Graphics & Text | Print | Product List | Glossary On
Versions: 1 2 3 4 5 6 7 8 9 10 11 12 13 14 15 16 17 18 19 20 21 22 23 24 25 26 27 28 29 30 31 32 33 34 35 36 37 38 39 40 41 42 43 44 45 46 47 48 49 50
000
ASUS43 KDMX 222306
RWRIA

WEATHER ROUNDUP FOR IOWA
NATIONAL WEATHER SERVICE DES MOINES IA
500 PM CST WED NOV 22 2017

NOTE: "FAIR" INDICATES FEW OR NO CLOUDS BELOW 12,000 FEET WITH NO
SIGNIFICANT WEATHER AND/OR OBSTRUCTIONS TO VISIBILITY.

* - THESE STATIONS ARE NOT NWS STATIONS...THUS NOT UNDER NWS
QUALITY CONTROL.  THEY ALSO DO NOT REPORT WEATHER SUCH
AS PRECIPITATION OR FOG.

IAZ001>003-012>014-020>022-031>034-043>046-230000-
   NORTHWEST IOWA

CITY           SKY/WX    TMP DP  RH WIND       PRES   REMARKS
CARROLL *      CLOUDY    36  14  41 S13       30.11S WCI  27
CHEROKEE *     PTCLDY    35  16  46 SW13      30.07F WCI  26
DENISON *      CLOUDY    34  16  47 S13       30.12F WCI  25
LE MARS *      CLOUDY    36  18  48 S13       30.05F WCI  27
ORANGE CITY *  PTCLDY    36  19  51 S15       30.03F WCI  26
SHELDON *      PTCLDY    34  16  47 S16       30.00F WCI  23
SIOUX CITY     PTCLDY    38  18  44 S12       30.07F WCI  30
SPENCER        CLEAR     34  14  43 S17G24    30.04F WCI  23
STORM LAKE *   CLOUDY    34  14  44 SW15      30.06F WCI  24
$$

IAZ055>058-069>071-079>083-090>094-230000-
   SOUTHWEST IOWA

CITY           SKY/WX    TMP DP  RH WIND       PRES   REMARKS
ATLANTIC *     CLOUDY    36  16  44 S13       30.13F WCI  27
AUDUBON *      PTCLDY    36  16  44 S9        30.13F WCI  29
CLARINDA *     CLEAR     36  16  44 S7        30.19F WCI  30
COUNCIL BLFS * CLEAR     37  18  44 S9        30.13F WCI  31
CRESTON *      CLOUDY    36  16  44 S12       30.18F WCI  27
HARLAN  *      CLOUDY    34  16  47 S10       30.16F WCI  26
LAMONI         PTCLDY    36  15  42 S8        30.19F WCI  30
RED OAK *      CLEAR     36  16  44 S9        30.16F WCI  29
SHENANDOAH *   CLEAR     37  16  41 S8        30.17F WCI  31
$$

IAZ047>049-059>061-072>074-084-230000-
   CENTRAL IOWA

CITY           SKY/WX    TMP DP  RH WIND       PRES   REMARKS
AMES           MOCLDY    35  17  47 S9        30.15F WCI  28
ANKENY *       CLOUDY    37  14  38 S9        30.18F WCI  31
BOONE *        CLOUDY    36  14  41 SW9       30.13F WCI  29
CHARITON *     CLOUDY    36  14  41 S7        30.20S WCI  30
DES MOINES     CLOUDY    37  13  37 S10       30.17F WCI  30
GRINNELL*      MOCLDY    35  14  42 S8        30.18F WCI  28
KNOXVILLE *    CLOUDY    37  10  32 SW8       30.18F WCI  31
MARSHALLTOWN   CLOUDY    34  15  46 S9        30.16F WCI  27
NEWTON *       CLOUDY    36  12  38 S12       30.17F WCI  27
PELLA *        PTCLDY    37  10  32 SW6       30.21F WCI  33
PERRY *          N/A     34  14  42 S8        30.15S WCI  28
$$

IAZ004>006-015-016-023>025-035-036-230000-
   NORTH CENTRAL IOWA

CITY           SKY/WX    TMP DP  RH WIND       PRES   REMARKS
ALGONA *       CLOUDY    34  18  51 S22G28    30.03F WCI  22
CLARION *      CLOUDY    34  16  47 S14G20    30.09F WCI  24
ESTHERVILLE    PTCLDY    32  15  49 S16       30.03F WCI  21
FORT DODGE *   CLOUDY    35  15  44 S16       30.09F WCI  25
MASON CITY     CLOUDY    32  15  49 S12       30.10F WCI  23
FOREST CITY *  MOCLDY    32  18  55 S13       30.06F WCI  22
WEBSTER CITY * CLOUDY    34  14  44 S14       30.09F WCI  24
IOWA FALLS *   CLOUDY    34  17  49 S10       30.15F WCI  26
$$

IAZ007>011-017>019-026>030-037>042-050>054-066-230000-
   NORTHEAST IOWA

CITY           SKY/WX    TMP DP  RH WIND       PRES   REMARKS
CEDAR RAPIDS   PTCLDY    31  15  52 S7        30.20F WCI  24
CHARLES CITY * CLOUDY    32  12  43 S12       30.12F WCI  23
CLINTON *      CLOUDY    31  20  63 W6        30.25S WCI  25
DECORAH *      CLOUDY    30  16  55 S6        30.13F WCI  24
DUBUQUE        MOCLDY    31  14  49 SW8       30.19F WCI  23
MONTICELLO *   MOCLDY    32  16  51 S7        30.20F WCI  26
OELWEIN *      CLOUDY    32  18  55 S9        30.15F WCI  24
WATERLOO       CLOUDY    33  12  41 S9        30.16F WCI  25
$$

IAZ064-065-067-068-078-230000-
   EAST CENTRAL IOWA

CITY           SKY/WX    TMP DP  RH WIND       PRES   REMARKS
DAVENPORT      PTCLDY    32  17  54 SW6       30.26S WCI  26
IOWA CITY      CLOUDY    35  17  47 S7        30.24F WCI  29
MT. PLEASANT * PTCLDY    33  18  52 S3        30.24F
MUSCATINE *    MOCLDY    34  18  51 S5        30.25F WCI  30
QUAD CITIES    MOCLDY    33  16  49 SW5       30.24  WCI  29
$$

IAZ062-063-075>077-085>089-095>099-230000-
   SOUTHEAST IOWA

CITY           SKY/WX    TMP DP  RH WIND       PRES   REMARKS
BURLINGTON     MOCLDY    33  18  53 S5        30.24F WCI  29
FAIRFIELD *    CLOUDY    36  12  38 S6        30.21F WCI  31
FORT MADISON * MOCLDY    36  18  48 S3        30.25F
KEOKUK *       MOCLDY    36  16  44 S5        30.25F WCI  32
OSKALOOSA *      N/A     34  15  45 SW5       30.22S WCI  30
OTTUMWA        PTCLDY    35  13  40 S7        30.21F WCI  29
WASHINGTON *   CLOUDY    34  16  47 S6        30.23F WCI  29
$$

ABBREVIATIONS USED IN REMARKS
   TC - TEMPERATURES IN CELSIUS
  WCI - WIND CHILL INDEX
   HX - HEAT INDEX
  VSB - VISIBILITY
$$





USA.gov is the U.S. government's official web portal to all federal, state and local government web resources and services.